Location: Kitt Peak
(31.9639°N, 111.5992°W)
Time: 15:56:33
(UTC-07:00)

BUGSAT 1 - Pass Details

Date: 17 September 2024
Orbit: 523 x 572 km, 98.1° (Epoch: 05 October)

Event Time Altitude Azimuth Distance (km) Brightness Sun altitude
Exits shadow 21:09:11 15° 335° (NNW) 1,591 ? -33.6°
Drops below altitude 10° 21:09:53 10° 338° (NNW) 1,868 ? -33.8°
Sets 21:12:03 0° 343° (NNW) 2,761 ? -34.2°
